Flag for Guatemala

Past Weather in Municipio de Panajachel, Guatemala — Yesterday and Last 2 Weeks

Now
64 °F

Passing clouds.


Feels Like: 64 °F
Forecast: 75 / 60 °F
Wind: 9 mph from North

Location: Guatemala Aeropuertola Aurora

Current Time: Jul 17, 2019 at 5:28:59 am

Latest Report: Jul 17, 2019 at 5:00 am


Visibility: N/A

Pressure: 30.27 "Hg

Humidity: 94%

Dew Point: 63 °F

Location of Municipio de PanajachelLocation

Past Weather in Municipio de Panajachel — Graph

°F

Municipio de Panajachel Temperature Yesterday

Maximum temperature yesterday: 75 °F (at 3:00 pm)
Minimum temperature yesterday: 61 °F (at 12:00 am)
Average temperature yesterday: 67 °F

High & Low Weather Summary for the Past Weeks

 TemperatureHumidityPressure
High82 °F (Jul 2, 3:00 pm)100% (Jul 12, 7:00 pm)30.36 "Hg (Jul 12, 7:00 pm)
Low59 °F (Jul 5, 5:00 am)32% (Jul 4, 4:00 pm)29.98 "Hg (Jul 14, 1:00 am)
Average69 °F74%30.28 "Hg
* Reported Jul 2 4:00 am — Jul 17 4:00 am, Municipio de Panajachel. Weather by CustomWeather, © 2019

Note: Actual official high and low records may vary slightly from our data, if they occured in-between our weather recording intervals... More about our weather records

Advertising

Municipio de Panajachel Weather History for the Previous 24 Hours

Scroll right to see more
 ConditionsComfort  
Time TempWeatherWind HumidityBarometerVisibility
4:00 am
Wed, Jul 17
64 °FPassing clouds.12 mph94%30.27 "HgN/A
3:00 am64 °FDrizzle. Overcast.14 mph94%30.27 "HgN/A
2:00 am64 °FPassing clouds.14 mph94%30.30 "HgN/A
1:00 am66 °FPassing clouds.9 mph88%30.33 "HgN/A
12:00 am66 °FPassing clouds.9 mph88%30.36 "HgN/A
11:00 pm
Tue, Jul 16
66 °FPassing clouds.7 mph83%30.36 "HgN/A
10:00 pm66 °FPassing clouds.9 mph83%30.33 "HgN/A
9:00 pm66 °FPassing clouds.12 mph83%30.33 "HgN/A
8:00 pm68 °FPartly cloudy.14 mph73%30.30 "HgN/A
7:00 pm70 °FPartly cloudy.14 mph69%30.27 "HgN/A
6:00 pm72 °FBroken clouds.9 mph65%30.27 "HgN/A
5:00 pm73 °FThunderstorms. Partly sunny.12 mph57%30.24 "Hg5 mi
4:00 pm75 °FScattered clouds.16 mph54%30.24 "HgN/A
3:00 pm75 °FScattered clouds.14 mph65%30.27 "HgN/A
2:00 pm73 °FPartly sunny.14 mph65%30.27 "HgN/A
1:00 pm73 °FBroken clouds.14 mph65%30.30 "HgN/A
12:00 pm72 °FBroken clouds.14 mph65%30.33 "HgN/A
11:00 am70 °FBroken clouds.12 mph73%30.30 "HgN/A
10:00 am70 °FPartly sunny.9 mph69%30.33 "HgN/A
9:00 am66 °FPartly sunny.9 mph73%30.33 "HgN/A
8:00 am64 °FLight rain. Partly sunny.9 mph78%30.30 "HgN/A
7:00 am63 °FSunny.9 mph83%30.30 "Hg10 mi
6:00 am63 °FSunny.12 mph83%30.27 "Hg10 mi
5:00 am61 °FClear.12 mph94%30.27 "Hg10 mi
Weather by CustomWeather, © 2019

See weather overview